Location: Taukkyan
(23.1052°N, 94.0030°E)
Time: 11:48:48
(UTC+00:00)

Cosmos 1356 Rocket - Pass Details

Date: 06 July 2020
Orbit: 542 x 599 km, 81.2° (Epoch: 14 August)

Event Time Altitude Azimuth Distance (km) Brightness Sun altitude
Rises 14:02:50 0° 346° (NNW) 2,811 7.7 -18.5°
Reaches altitude 10° 14:05:06 10° 341° (NNW) 1,900 6.9 -18.9°
Maximum altitude 14:09:09 49° 266° (W) 742 4.2 -19.7°
Enters shadow 14:11:48 19° 198° (SSW) 1,359 5.1 -20.2°
